Old Hickory Observed Data For Previous 48 Hours

Caption
Day and Hour Reservoir Elevation (behind dam)* Tailwater Elevation (below dam)* Average Hourly Discharge*
4/22/2018 1 AM CDT 444.52 402.72 41,200
4/22/2018 2 AM CDT 444.49 402.69 41,200
4/22/2018 3 AM CDT 444.51 402.71 41,200
4/22/2018 4 AM CDT 444.50 402.70 41,200
4/22/2018 5 AM CDT 444.49 402.69 41,200
4/22/2018 6 AM CDT 444.48 402.68 41,200
4/22/2018 7 AM CDT 444.49 402.65 41,100
4/22/2018 8 AM CDT 444.50 402.63 41,100
4/22/2018 9 AM CDT 444.46 402.67 41,100
4/22/2018 10 AM CDT 444.46 402.65 41,100
4/22/2018 11 AM CDT 444.46 402.64 41,100
4/22/2018 12 PM CDT 444.46 402.63 41,100
4/22/2018 1 PM CDT 444.47 402.66 41,100
4/22/2018 2 PM CDT 444.49 402.69 41,100
4/22/2018 3 PM CDT 444.51 402.71 41,100
4/22/2018 4 PM CDT 444.51 402.74 40,800
4/22/2018 5 PM CDT 444.51 402.77 40,800
4/22/2018 6 PM CDT 444.51 402.80 40,800
4/22/2018 7 PM CDT 444.53 402.83 40,800
4/22/2018 8 PM CDT 444.56 402.86 40,800
4/22/2018 9 PM CDT 444.57 402.89 40,800
4/22/2018 10 PM CDT 444.60 403.05 40,800
4/22/2018 11 PM CDT 444.62 403.15 40,800
4/23/2018 12 AM CDT 444.62 403.15 40,800
4/23/2018 1 AM CDT 444.56 403.56 41,400
4/23/2018 2 AM CDT 444.67 403.60 41,400
4/23/2018 3 AM CDT 444.77 403.65 41,400
4/23/2018 4 AM CDT 444.88 403.68 41,400
4/23/2018 5 AM CDT 445.00 403.70 41,400
4/23/2018 6 AM CDT 445.10 403.76 41,400
4/23/2018 7 AM CDT 445.03 404.29 46,000
4/23/2018 8 AM CDT 445.00 405.27 51,000
4/23/2018 9 AM CDT 445.03 405.66 51,000
4/23/2018 10 AM CDT 445.06 405.90 51,500
4/23/2018 11 AM CDT 445.08 406.10 49,800
4/23/2018 12 PM CDT 445.10 406.32 49,800
4/23/2018 1 PM CDT 445.12 406.47 50,400
4/23/2018 2 PM CDT 445.14 406.77 50,400
4/23/2018 3 PM CDT 445.13 407.10 50,700
4/23/2018 4 PM CDT 445.20 407.49 49,900
4/23/2018 5 PM CDT 445.21 407.83 49,900
4/23/2018 6 PM CDT 445.24 407.84 49,900
4/23/2018 7 PM CDT 445.25 407.85 49,900
4/23/2018 8 PM CDT 445.30 407.65 49,900
4/23/2018 9 PM CDT 445.35 407.56 49,900
4/23/2018 10 PM CDT 445.35 407.47 49,900
4/23/2018 11 PM CDT 445.35 407.38 49,900
4/24/2018 12 AM CDT 445.34 407.20 49,900
4/24/2018 1 AM CDT 445.31 407.10 49,700
4/24/2018 2 AM CDT 445.28 406.98 49,700
4/24/2018 3 AM CDT 445.26 406.95 49,700
4/24/2018 4 AM CDT 445.24 406.90 49,700
4/24/2018 5 AM CDT 445.25 406.88 49,700
4/24/2018 6 AM CDT 445.22 406.85 49,700
4/24/2018 7 AM CDT 445.20 406.79 50,400
4/24/2018 8 AM CDT 445.17 406.73 50,400
4/24/2018 9 AM CDT 445.13 406.67 50,900
4/24/2018 10 AM CDT 445.10 406.62 50,900
4/24/2018 11 AM CDT 445.06 406.56 50,900
4/24/2018 12 PM CDT 445.03 406.54 50,400
4/24/2018 1 PM CDT 445.00 406.52 50,400
4/24/2018 2 PM CDT 444.97 406.51 50,400
4/24/2018 3 PM CDT 444.94 406.48 50,400
4/24/2018 4 PM CDT 444.91 406.45 49,300
4/24/2018 5 PM CDT 444.86 406.42 49,300
4/24/2018 6 PM CDT 444.86 406.42 49,300
4/24/2018 7 PM CDT 444.80 403.40 49,300
4/24/2018 8 PM CDT 444.75 406.35 49,300

Elevations are in feet above sea level. Discharges are in cubic feet per second and are reported at the end of the hour.